Temperature
19 19 19 19 19 19 19 19 18 18 18 18 18 17 17 17 16 16 16 16 15 15 15 15 14 14 13 13 13 13 13 13 13 14 14 15 15 15 15 16 16 16 16
19 19 19 19 19 19 19 18 18 18 18 18 18 17 17 16 16 16 15 15 15 15 14 14 14 13 13 13 13 13 13 13 13 13 13 14 15 15 15 15 15 15 15
19 19 19 19 19 19 19 19 19 18 18 18 17 17 16 16 16 15 15 15 15 14 14 14 13 13 13 13 12 12 12 12 12 12 12 12 13 13 15 15 15 15 15
19 19 19 19 19 19 19 19 19 18 18 18 17 17 16 16 16 15 15 15 14 14 14 13 13 13 13 12 12 12 12 12 12 12 12 12 12 12 13 14 14 14 14
19 19 19 20 19 19 19 19 19 18 18 17 17 17 16 16 15 15 15 14 14 14 13 13 13 13 12 12 12 12 12 12 12 12 12 12 12 12 12 12 14 14 14
20 20 20 20 20 19 19 19 19 18 18 17 17 17 16 16 15 15 14 14 14 13 13 13 13 13 12 12 12 12 11 11 11 11 11 11 11 11 11 11 12 13 14
20 20 20 20 20 20 20 19 19 19 18 18 17 17 16 16 15 15 14 14 13 13 13 13 13 12 12 12 12 11 11 11 11 11 11 11 11 11 11 11 11 12 12
21 21 21 21 20 20 20 20 19 19 18 18 17 17 16 16 15 15 14 14 14 13 13 13 13 12 12 12 12 11 11 11 11 11 11 11 11 11 11 11 11 11 11
21 21 21 21 21 21 20 20 19 19 18 18 17 16 16 16 15 15 14 14 13 13 13 13 12 12 12 12 12 11 11 11 11 11 11 11 11 11 11 11 10 10 10
22 22 22 22 21 21 21 20 20 19 18 18 17 17 16 16 15 15 14 14 14 13 13 13 12 12 12 12 11 11 11 11 11 11 11 11 11 11 11 11 10 10 10
23 23 22 22 22 21 21 20 20 19 18 18 17 17 16 16 15 15 15 14 14 13 13 13 12 12 12 12 11 11 11 11 11 11 11 11 11 11 10 10 10 10 10
24 23 23 22 22 21 21 20 20 19 19 18 18 17 17 16 16 15 15 14 14 13 13 13 12 12 12 12 11 11 11 11 11 11 11 11 11 11 10 10 10 10 10
24 23 23 22 22 22 21 21 20 20 19 18 18 17 17 16 16 15 15 14 14 13 13 13 12 12 12 12 11 11 11 11 11 11 11 11 10 10 10 10 10 10 10
24 23 23 23 22 22 21 21 20 20 19 18 18 17 17 16 16 15 15 14 14 14 13 13 12 12 12 12 12 11 11 11 11 11 10 10 10 10 10 10 10 10 10
23 23 23 23 22 22 21 21 21 20 19 19 18 18 17 16 16 16 15 15 14 14 13 13 12 12 12 12 12 11 11 11 11 11 10 10 10 10 10 10 10 9 9
24 24 23 23 22 22 22 21 21 20 19 19 18 18 17 17 16 16 15 15 14 14 13 13 13 13 12 12 12 11 11 11 11 11 11 10 10 10 10 10 9 9 9
24 24 24 23 23 22 22 21 21 20 19 19 18 18 17 17 16 16 15 15 15 14 14 13 13 13 13 12 12 11 11 11 11 11 10 10 10 10 10 9 9 9 9
24 24 24 23 23 22 22 21 21 20 19 19 18 18 17 17 16 16 16 15 15 15 14 14 13 13 13 12 12 12 11 11 11 11 10 10 10 10 9 9 9 9 9
24 24 24 24 23 22 22 21 20 20 19 19 18 18 17 17 16 16 16 15 15 15 14 14 14 13 13 13 12 12 11 11 11 11 10 10 10 10 9 9 9 9 9
24 24 24 23 23 22 21 21 20 20 19 19 19 18 17 17 17 16 16 15 15 15 14 14 14 13 13 13 12 12 11 11 11 11 11 10 10 10 9 9 9 9 9
23 23 23 23 22 22 21 20 20 20 19 19 18 17 17 17 16 16 16 15 15 14 14 14 14 13 13 13 12 12 12 11 11 11 11 10 10 9 9 9 9 9 8
22 22 22 22 21 21 20 20 20 20 19 18 18 17 17 16 16 16 15 15 15 14 14 14 14 13 13 13 12 12 12 11 11 11 11 10 10 9 9 9 9 8 8
21 21 21 20 20 20 19 19 19 18 18 17 17 16 16 16 15 15 15 14 14 14 14 13 13 13 13 13 12 12 12 11 11 11 11 10 10 9 9 9 9 8 8
19 19 19 19 19 18 18 18 18 17 17 17 16 16 15 15 15 14 14 14 14 13 13 13 13 13 13 13 12 12 12 11 11 11 11 10 10 9 9 9 9 8 8
18 18 18 18 17 17 17 17 17 16 16 16 15 15 15 14 14 14 14 13 13 13 13 13 13 13 13 13 12 12 12 11 11 11 10 10 10 10 9 9 9 9 8
16 17 16 16 16 16 16 15 15 15 15 14 14 14 14 13 13 13 13 13 13 13 13 13 12 12 13 13 12 12 12 11 11 10 10 10 10 9 9 9 9 9 8
Wind_Speed
6 7 9 10 9 8 9 9 8 7 6 4 4 4 3 2 2 4 7 8 8 8 7 4 3 4 4 3 3 2 3 3 3 4 5 5 4 4 3 3 2 4 7
6 7 8 8 9 9 9 9 8 7 7 5 4 3 3 2 2 2 5 7 7 7 6 4 3 3 3 4 4 3 2 3 3 2 3 4 6 5 4 4 3 3 2
12 11 11 10 10 10 11 10 8 8 7 6 4 4 4 3 3 2 1 3 6 6 6 6 4 3 3 2 2 3 3 2 3 2 3 2 3 4 4 4 5 5 3
12 12 12 12 12 11 10 9 9 8 7 7 6 5 4 3 2 2 2 2 3 4 6 6 5 4 2 2 1 2 2 2 2 2 1 2 3 1 4 5 5 6 5
14 14 14 13 13 12 10 9 9 8 7 7 8 7 5 4 3 2 2 1 1 1 3 5 5 4 2 2 1 1 1 1 1 1 1 2 1 1 1 4 5 5 5
14 14 13 11 10 10 11 11 10 8 8 8 8 8 8 6 4 2 1 0 1 1 1 4 4 4 3 2 2 1 1 1 1 1 1 1 1 1 0 2 4 5 5
14 14 13 13 12 13 12 12 11 9 9 9 8 8 8 7 6 4 3 2 1 0 1 2 3 3 3 3 2 2 2 2 2 3 3 3 3 3 3 2 3 4 4
15 15 16 15 14 15 14 13 12 10 10 9 8 8 8 6 5 5 5 4 3 3 3 3 3 3 4 3 3 2 3 3 3 4 4 3 4 3 3 3 2 3 4
16 16 16 15 14 14 14 14 13 10 10 10 9 8 8 7 6 5 4 3 3 3 4 3 3 3 4 4 3 3 4 4 4 5 5 4 4 4 4 4 4 3 4
16 16 15 15 14 14 12 12 12 12 10 10 9 8 8 8 7 6 5 5 4 4 4 3 4 4 4 4 4 4 5 5 5 5 5 5 5 5 4 4 4 4 5
17 16 14 13 13 12 12 12 12 10 10 10 8 8 8 7 7 6 6 5 5 5 5 5 5 5 5 5 4 5 6 6 6 6 6 7 6 5 5 5 4 4 4
16 14 13 12 12 13 13 13 12 12 11 10 9 9 8 7 7 6 6 6 6 6 6 6 5 6 6 6 6 7 6 6 7 7 6 7 6 6 6 5 6 6 6
12 11 12 13 14 14 13 13 12 12 11 10 10 9 8 8 8 7 7 6 7 6 6 6 6 7 7 7 7 7 7 7 7 7 7 8 7 7 6 6 6 6 6
13 13 13 13 13 13 13 13 12 11 11 10 10 10 9 9 9 8 7 7 7 7 7 7 7 7 7 7 7 7 7 7 7 7 7 7 7 8 8 7 7 7 6
12 14 14 13 12 12 12 12 11 11 10 10 10 10 9 9 8 8 8 7 7 7 7 7 7 7 6 7 7 7 7 7 7 7 7 7 9 11 9 7 7 7 6
13 14 13 13 13 13 13 11 11 11 10 11 11 10 9 8 8 8 8 7 7 7 6 7 7 7 7 9 11 8 7 7 7 7 7 8 9 11 12 13 12 10 8
12 13 14 14 14 14 13 13 12 10 10 11 10 10 9 9 9 9 8 8 8 7 7 7 7 8 10 12 13 13 8 8 8 8 7 8 8 9 8 9 11 11 13
11 13 13 12 11 11 11 11 10 10 11 10 10 9 9 9 9 8 8 8 7 7 7 8 8 8 10 13 14 14 9 8 9 9 9 9 9 9 9 8 8 9 9
9 11 13 12 11 11 11 10 9 9 9 10 10 10 10 9 9 9 9 8 6 7 7 7 8 9 10 13 14 13 6 7 10 9 9 9 9 12 13 9 9 9 9
4 6 7 7 9 9 10 10 10 9 10 10 10 9 9 9 10 10 9 7 7 8 8 8 9 9 10 13 14 12 6 8 8 8 8 11 11 12 11 7 7 9 9
1 3 5 7 8 8 9 10 9 10 10 8 7 7 8 9 9 8 7 7 7 7 8 9 9 9 11 12 15 13 8 8 8 7 7 8 11 12 12 9 8 11 10
4 3 4 3 3 6 9 8 9 9 6 6 6 7 7 6 6 6 7 6 7 8 8 8 9 8 9 11 13 15 15 12 9 9 8 8 12 13 12 9 11 14 10
5 3 3 3 3 4 6 7 6 4 4 4 5 5 5 5 5 6 7 6 6 6 8 7 9 9 8 8 14 15 15 15 10 9 11 12 13 12 10 13 15 12 7
7 5 5 4 2 1 2 3 2 3 4 3 4 3 4 5 5 5 6 6 7 7 8 8 9 9 7 7 7 7 8 10 10 8 9 11 12 10 11 11 9 8 8
6 6 6 4 3 2 1 1 1 2 2 2 2 3 4 5 5 6 7 8 8 10 10 10 9 9 10 12 14 10 8 7 7 4 3 4 4 5 6 7 8 7 7
7 7 7 6 5 4 3 3 1 2 2 1 3 3 4 4 5 6 8 12 14 17 18 18 15 12 15 15 14 16 15 12 9 5 4 6 7 8 8 8 8 7 8
Wind_Direction
187 165 157 151 140 135 136 139 142 146 134 123 120 119 127 134 135 156 154 146 138 127 116 104 84 73 63 39 25 24 15 358 359 13 341 327 326 331 321 309 279 249 233
170 167 157 152 150 149 149 152 155 152 147 145 148 148 142 141 147 146 153 158 153 146 138 132 122 99 73 44 35 46 37 355 21 46 20 349 341 341 353 2 10 336 288
177 179 171 167 163 167 168 167 167 158 155 148 123 95 76 65 66 90 140 183 172 164 157 154 143 128 110 79 48 73 84 18 351 46 92 57 317 314 326 350 7 357 349
183 180 174 172 176 179 175 168 168 162 157 147 137 137 137 141 163 168 187 219 198 187 180 169 158 149 136 120 107 114 112 102 6 353 47 165 197 266 319 325 345 352 353
184 181 179 179 182 180 174 170 166 166 162 153 147 138 136 151 156 141 144 226 279 239 190 172 160 153 154 160 147 121 117 137 163 265 329 352 18 102 159 309 328 336 332
186 186 184 181 182 179 174 171 168 171 166 159 154 150 152 154 146 137 138 290 319 334 139 153 156 162 167 186 205 209 211 210 216 218 207 196 249 285 250 273 304 311 308
185 186 186 185 185 182 179 175 172 174 173 165 162 160 160 159 161 171 168 166 161 176 178 153 163 174 193 204 206 220 238 237 238 241 235 220 217 213 205 226 274 291 298
189 191 192 189 186 185 182 179 178 175 173 169 169 166 162 156 159 164 166 174 184 195 190 172 181 199 212 219 209 217 235 232 242 253 246 242 245 224 210 210 233 297 306
191 194 194 191 187 185 184 182 178 175 176 175 171 172 169 165 171 177 173 177 187 188 178 182 196 218 227 230 223 231 245 245 245 250 250 244 250 242 230 214 196 208 274
192 195 193 191 189 186 182 176 173 176 177 175 177 178 177 176 176 176 184 191 200 197 194 211 220 232 238 236 227 238 246 246 252 246 249 251 249 251 247 238 225 203 213
193 194 192 189 181 175 172 172 172 170 174 176 175 169 178 181 179 183 195 197 202 203 209 219 225 231 239 240 234 242 247 246 255 258 250 253 251 249 251 246 242 234 212
192 189 183 175 172 172 172 174 175 176 179 176 173 177 181 180 183 194 203 201 205 212 215 219 223 232 236 235 233 244 248 241 246 252 252 257 259 250 247 244 244 243 231
186 177 172 172 174 175 174 176 179 181 179 173 174 179 183 185 194 203 206 205 208 216 221 219 225 233 238 238 237 235 240 238 239 243 243 251 253 256 253 247 246 246 249
175 172 174 176 176 176 176 178 183 182 176 174 177 185 193 195 201 204 205 209 212 217 223 225 228 232 236 239 240 236 236 239 243 242 241 244 243 247 250 252 246 244 247
171 175 177 178 176 176 178 180 183 181 175 174 183 194 198 198 199 203 209 215 218 223 223 226 234 237 237 238 234 232 233 235 245 249 247 247 249 249 248 249 241 239 240
177 179 176 176 179 181 182 182 184 181 173 178 190 194 192 195 200 206 211 215 222 226 223 228 234 240 243 240 232 224 228 231 237 249 255 259 262 264 264 264 257 238 232
178 179 181 183 184 184 182 185 186 177 175 183 189 190 191 198 206 209 209 216 220 220 225 234 236 242 250 252 247 240 226 231 237 242 251 264 265 264 262 267 270 264 252
181 186 188 189 189 185 182 180 173 173 180 187 194 195 195 204 208 207 212 218 217 219 228 235 238 243 253 253 251 247 235 234 240 240 241 248 260 264 256 258 264 260 260
188 191 192 188 183 184 181 168 171 175 183 195 201 202 199 204 206 211 219 220 218 225 230 236 238 243 255 255 254 247 230 237 246 247 246 244 251 260 260 255 258 265 268
177 188 183 170 177 186 169 166 176 180 197 204 206 203 200 204 210 217 220 219 219 228 233 241 240 240 249 255 254 244 221 236 249 254 252 248 250 258 260 241 241 255 263
136 152 154 169 188 176 162 172 179 199 209 202 200 202 205 209 214 218 222 223 228 236 241 248 250 246 248 256 255 243 216 228 241 248 251 249 252 256 254 240 230 243 252
37 86 133 163 162 155 162 176 198 210 196 187 197 208 212 216 219 221 231 232 231 241 249 253 262 260 255 251 251 242 227 222 226 240 244 246 251 252 253 251 245 251 257
39 62 105 104 92 134 157 184 215 189 170 184 207 218 220 223 221 220 232 240 236 240 252 252 258 263 258 251 244 241 235 228 225 239 241 245 254 258 258 254 254 255 247
40 48 67 73 60 104 166 197 188 156 163 195 221 227 227 240 243 239 236 239 243 246 250 252 255 258 257 250 242 237 237 235 234 244 252 257 260 257 254 259 261 246 235
44 53 61 59 36 39 32 21 84 137 165 212 237 247 247 250 259 259 252 249 247 244 244 250 247 248 256 252 231 218 220 217 220 214 241 251 257 259 258 257 255 248 240
43 45 43 41 34 37 24 1 11 115 139 253 269 263 263 267 269 275 283 267 260 262 251 248 248 247 245 252 240 226 225 216 189 178 229 244 247 250 255 258 261 253 246
Height
1528 1531 1533 1535 1537 1539 1541 1542 1545 1546 1548 1549 1550 1551 1551 1552 1552 1552 1552 1552 1551 1550 1550 1548 1547 1547 1546 1545 1545 1544 1544 1544 1543 1542 1542 1542 1542 1542 1542 1542 1542 1543 1545
1528 1530 1533 1534 1536 1538 1540 1542 1544 1546 1547 1548 1549 1550 1550 1551 1551 1551 1551 1550 1550 1549 1548 1547 1546 1545 1544 1543 1543 1543 1542 1542 1542 1541 1540 1540 1541 1540 1540 1540 1540 1541 1542
1525 1528 1531 1533 1535 1537 1539 1541 1543 1545 1546 1547 1548 1549 1549 1549 1549 1549 1549 1549 1548 1547 1547 1546 1545 1544 1543 1542 1542 1541 1541 1541 1541 1541 1541 1540 1539 1539 1539 1539 1539 1539 1539
1524 1526 1528 1531 1533 1536 1538 1540 1542 1543 1544 1545 1546 1547 1547 1547 1547 1547 1547 1547 1546 1546 1545 1544 1543 1543 1542 1541 1541 1540 1540 1539 1539 1539 1540 1540 1540 1539 1537 1537 1537 1537 1537
1521 1523 1526 1528 1531 1534 1536 1538 1540 1541 1542 1543 1544 1545 1545 1545 1545 1545 1545 1545 1544 1544 1543 1542 1542 1541 1541 1540 1539 1539 1538 1538 1537 1537 1538 1538 1538 1538 1537 1535 1535 1535 1536
1518 1521 1524 1527 1529 1532 1534 1536 1538 1539 1540 1541 1542 1542 1543 1543 1543 1543 1542 1542 1542 1541 1541 1541 1540 1540 1539 1538 1538 1537 1537 1536 1536 1536 1536 1536 1536 1536 1535 1534 1533 1532 1533
1515 1519 1522 1524 1526 1529 1531 1533 1535 1536 1537 1539 1539 1540 1540 1540 1540 1540 1540 1539 1539 1539 1539 1539 1538 1538 1537 1537 1536 1535 1535 1534 1534 1534 1533 1533 1533 1533 1533 1533 1531 1530 1529
1511 1514 1517 1520 1522 1525 1527 1530 1532 1533 1535 1536 1536 1537 1537 1537 1537 1537 1537 1537 1537 1537 1536 1536 1536 1536 1535 1534 1534 1533 1533 1532 1532 1531 1531 1531 1531 1531 1530 1530 1529 1527 1526
1507 1510 1514 1516 1518 1521 1523 1526 1528 1530 1532 1533 1534 1534 1535 1535 1535 1535 1534 1534 1534 1534 1534 1534 1533 1533 1532 1532 1531 1531 1530 1530 1529 1529 1528 1528 1528 1527 1527 1527 1527 1526 1523
1503 1506 1509 1512 1515 1517 1520 1523 1525 1527 1528 1530 1531 1531 1532 1532 1532 1532 1532 1532 1532 1532 1532 1531 1531 1530 1530 1529 1528 1528 1527 1527 1526 1526 1525 1524 1524 1524 1523 1523 1523 1522 1521
1498 1501 1504 1508 1511 1514 1517 1520 1522 1524 1525 1527 1527 1528 1529 1529 1529 1529 1529 1529 1529 1529 1529 1528 1528 1527 1527 1526 1525 1525 1524 1523 1523 1522 1521 1520 1520 1519 1519 1519 1518 1518 1517
1493 1497 1500 1504 1508 1511 1513 1516 1518 1520 1522 1523 1525 1525 1526 1526 1526 1526 1526 1526 1526 1526 1526 1525 1524 1524 1523 1523 1522 1521 1520 1520 1519 1518 1517 1516 1516 1515 1514 1514 1513 1513 1512
1490 1493 1497 1500 1503 1507 1510 1513 1515 1517 1519 1520 1521 1522 1523 1523 1523 1523 1523 1523 1523 1523 1522 1522 1521 1521 1520 1519 1518 1517 1516 1515 1515 1514 1513 1512 1511 1510 1509 1508 1508 1507 1507
1486 1490 1493 1496 1500 1503 1506 1509 1512 1514 1515 1517 1518 1518 1519 1520 1520 1520 1520 1520 1520 1519 1519 1518 1518 1517 1516 1515 1514 1513 1512 1511 1510 1509 1508 1507 1506 1504 1503 1502 1502 1501 1501
1483 1486 1490 1493 1497 1500 1503 1506 1508 1510 1511 1513 1514 1515 1516 1517 1517 1517 1517 1517 1516 1516 1515 1514 1514 1513 1512 1511 1510 1509 1507 1506 1505 1504 1503 1502 1500 1499 1498 1497 1496 1495 1495
1481 1484 1487 1490 1493 1497 1500 1502 1504 1506 1508 1509 1510 1512 1512 1513 1513 1513 1513 1513 1512 1512 1511 1510 1509 1508 1507 1506 1505 1504 1503 1502 1500 1499 1498 1496 1495 1493 1492 1491 1490 1489 1489
1478 1482 1484 1487 1490 1493 1496 1498 1500 1502 1504 1505 1506 1507 1508 1509 1509 1509 1509 1509 1508 1508 1507 1506 1504 1503 1502 1502 1501 1499 1498 1497 1495 1494 1492 1490 1489 1488 1486 1485 1484 1483 1483
1477 1479 1482 1484 1487 1490 1492 1495 1497 1498 1500 1501 1502 1503 1504 1505 1505 1505 1505 1504 1504 1503 1502 1501 1500 1498 1498 1497 1496 1494 1493 1491 1490 1488 1487 1485 1483 1482 1480 1479 1478 1477 1476
1475 1477 1479 1481 1484 1486 1489 1491 1493 1494 1496 1497 1498 1499 1500 1500 1500 1500 1500 1500 1499 1498 1497 1496 1495 1493 1492 1492 1490 1489 1487 1486 1484 1483 1481 1479 1478 1476 1475 1473 1471 1470 1470
1474 1476 1477 1479 1481 1483 1485 1487 1488 1490 1491 1492 1493 1495 1495 1496 1495 1495 1495 1495 1494 1493 1492 1490 1489 1488 1487 1486 1485 1484 1482 1480 1479 1477 1475 1474 1472 1470 1469 1467 1466 1464 1463
1473 1474 1475 1476 1478 1480 1482 1483 1485 1486 1487 1489 1490 1490 1491 1491 1491 1491 1490 1490 1489 1487 1486 1485 1484 1483 1481 1480 1479 1478 1476 1474 1472 1470 1469 1468 1466 1464 1463 1461 1460 1458 1457
1471 1473 1474 1474 1476 1477 1479 1480 1481 1482 1484 1485 1485 1486 1486 1486 1486 1486 1485 1484 1483 1482 1480 1479 1477 1476 1475 1474 1472 1471 1470 1468 1466 1464 1462 1461 1460 1458 1456 1455 1453 1452 1451
1471 1472 1473 1474 1475 1476 1477 1478 1479 1480 1481 1481 1481 1481 1481 1481 1481 1480 1479 1478 1477 1476 1474 1473 1471 1469 1468 1467 1466 1464 1463 1461 1460 1458 1456 1455 1453 1451 1449 1448 1447 1446 1444
1472 1472 1473 1473 1474 1475 1475 1476 1477 1477 1477 1477 1477 1477 1477 1476 1475 1474 1473 1472 1471 1469 1467 1466 1464 1462 1461 1460 1458 1457 1456 1454 1453 1451 1449 1448 1446 1444 1443 1441 1440 1438 1437
1474 1473 1473 1473 1474 1474 1474 1475 1475 1474 1474 1474 1473 1473 1472 1471 1470 1469 1467 1465 1464 1463 1461 1459 1457 1455 1453 1452 1451 1450 1448 1447 1446 1444 1443 1441 1439 1437 1436 1434 1432 1431 1430
1475 1475 1474 1474 1473 1473 1473 1473 1472 1472 1471 1470 1469 1468 1467 1465 1464 1462 1460 1458 1457 1455 1453 1451 1449 1447 1446 1444 1443 1442 1441 1440 1439 1437 1435 1434 1432 1430 1428 1427 1425 1424 1422